Location: *
(45.1961°N, 1.9694°E)
Time: 06:02:30
(UTC+00:00)

Mayak - Pass Details

Date: 25 August 2019
Orbit: 581 x 603 km, 97.6° (Epoch: 19 September)

Event Time Altitude Azimuth Distance (km) Brightness Sun altitude
Rises 23:04:24 0° 6° (N) 2,834 3.2 -33.1°
Reaches altitude 10° 23:06:39 10° 360° (N) 1,925 2.2 -33.2°
Enters shadow 23:08:21 23° 348° (NNW) 1,288 1.1 -33.3°
